Weather History for KONP - January, 2012

Change the Weather History Date:

Saturday, January 14, 2012

  Actual Average (KEUG) Record (KEUG)
Temperature  
Mean Temperature 40 °F 41 °F  
Max Temperature 46 °F 47 °F 60 °F (1974)
Min Temperature 35 °F 34 °F 17 °F (1949)
Degree Days  
Heating Degree Days 24 24  
Month to date heating degree days 349  
Since 1 July heating degree days 2306  
Cooling Degree Days 0 0  
Month to date cooling degree days 0  
Year to date cooling degree days 0  
Moisture  
Dew Point 38 °F    
Average Humidity 84    
Maximum Humidity 100    
Minimum Humidity 65    
Precipitation  
Precipitation 0.03 in 0.23 in 2.12 in (1974)
Month to date precipitation 3.34  
Year to date precipitation 3.34  
Sea Level Pressure  
Sea Level Pressure 30.15 in    
Wind  
Wind Speed 13 mph (WSW)    
Max Wind Speed 20 mph    
Max Gust Speed 31 mph    
Visibility 7 miles    
Events Rain    
T = Trace of Precipitation, MM = Missing Value Source: NWS Daily Summary

Daily Weather History Graph

Daily Weather History Graph

Search for Another Location

Airport or City:

Trip Planner

Search our weather history database for the weather conditions in past years. The results will help you decide how hot, cold, wet, or windy it might be!

Date:

Astronomy

Jan. 14, 2012 Rise Set
Actual Time 7:50 AM PST 5:00 PM PST
Civil Twilight 7:17 AM PST 5:33 PM PST
Nautical Twilight 6:41 AM PST 6:09 PM PST
Astronomical Twilight 6:06 AM PST 6:44 PM PST
Moon 11:46 PM PST (1/14) 10:21 AM PST (1/14)
Length of Visible Light 10h 15m
Length of Day
9h 10m
Waning Gibbous, 67% of the Moon is Illuminated
Jan 14
Waning Gibbous
Jan 16
Last Quarter
Jan 22
New
Jan 30
First Quarter
Feb 7
Full

Hourly Weather History & Observations

Time (PST) Temp. Windchill Dew Point Humidity Pressure Visibility Wind Dir Wind Speed Gust Speed Precip Events Conditions
12:15 AM 35.6 °F 29.9 °F 33.8 °F 93% 30.14 in 10.0 mi South 6.9 mph - N/A   Clear
12:35 AM 39.2 °F 33.0 °F 33.8 °F 81% 30.13 in 10.0 mi South 9.2 mph - N/A   Clear
12:55 AM 42.8 °F 37.5 °F 35.6 °F 76% 30.13 in 10.0 mi South 9.2 mph - N/A   Clear
1:15 AM 42.8 °F 37.5 °F 37.4 °F 81% 30.13 in 10.0 mi South 9.2 mph - N/A   Clear
1:35 AM 42.8 °F 36.6 °F 37.4 °F 81% 30.13 in 7.0 mi SSW 11.5 mph - N/A   Clear
1:55 AM 44.6 °F 38.4 °F 41.0 °F 87% 30.13 in 7.0 mi SSW 12.7 mph - N/A   Clear
2:15 AM 44.6 °F 38.1 °F 42.8 °F 93% 30.12 in 7.0 mi SSW 13.8 mph 19.6 mph N/A   Scattered Clouds
2:35 AM 44.6 °F 38.8 °F 42.8 °F 93% 30.13 in 7.0 mi SSW 11.5 mph 19.6 mph N/A   Mostly Cloudy
2:55 AM 44.6 °F 38.8 °F 42.8 °F 93% 30.12 in 7.0 mi South 11.5 mph - N/A   Mostly Cloudy
3:15 AM 44.6 °F 37.4 °F 42.8 °F 93% 30.12 in 7.0 mi SSW 16.1 mph 19.6 mph N/A   Overcast
3:35 AM 44.6 °F 37.2 °F 42.8 °F 93% 30.13 in 7.0 mi SSW 17.3 mph 24.2 mph N/A   Overcast
3:55 AM 44.6 °F 37.4 °F 42.8 °F 93% 30.12 in 7.0 mi SSW 16.1 mph 20.7 mph N/A   Overcast
4:15 AM 44.6 °F 37.4 °F 42.8 °F 93% 30.11 in 7.0 mi South 16.1 mph 21.9 mph N/A   Overcast
4:35 AM 44.6 °F 36.9 °F 42.8 °F 93% 30.11 in 10.0 mi South 18.4 mph 25.3 mph N/A   Overcast
4:55 AM 44.6 °F 37.4 °F 42.8 °F 93% 30.09 in 10.0 mi South 16.1 mph 24.2 mph N/A   Overcast
5:15 AM 44.6 °F 37.4 °F 41.0 °F 87% 30.09 in 10.0 mi South 16.1 mph 27.6 mph N/A   Overcast
5:35 AM 44.6 °F 36.6 °F 41.0 °F 87% 30.10 in 10.0 mi South 19.6 mph 29.9 mph N/A   Overcast
5:55 AM 44.6 °F 36.6 °F 41.0 °F 87% 30.12 in 7.0 mi SSW 19.6 mph 27.6 mph N/A   Overcast
6:15 AM 44.6 °F 36.6 °F 42.8 °F 93% 30.12 in 10.0 mi SSW 19.6 mph 27.6 mph N/A   Overcast
6:35 AM 44.6 °F 36.9 °F 42.8 °F 93% 30.14 in 7.0 mi SSW 18.4 mph 26.5 mph N/A   Overcast
6:55 AM 44.6 °F 37.2 °F 42.8 °F 93% 30.13 in 7.0 mi SSW 17.3 mph 25.3 mph N/A   Overcast
7:15 AM 44.6 °F 37.2 °F 42.8 °F 93% 30.12 in 7.0 mi South 17.3 mph 23.0 mph N/A   Overcast
7:35 AM 46.4 °F 39.8 °F 42.8 °F 87% 30.12 in 7.0 mi SSW 16.1 mph 23.0 mph N/A   Overcast
7:55 AM 46.4 °F 39.8 °F 42.8 °F 87% 30.12 in 7.0 mi SSW 16.1 mph 24.2 mph N/A   Overcast
8:15 AM 46.4 °F 39.2 °F 42.8 °F 87% 30.12 in 7.0 mi SSW 18.4 mph 26.5 mph N/A   Overcast
8:35 AM 46.4 °F 39.0 °F 42.8 °F 87% 30.12 in 7.0 mi SSW 19.6 mph 24.2 mph N/A   Overcast
8:55 AM 46.4 °F 39.8 °F 42.8 °F 87% 30.13 in 7.0 mi SW 16.1 mph - N/A   Overcast
9:35 AM 46.4 °F 39.8 °F 42.8 °F 87% 30.14 in 7.0 mi SSW 16.1 mph 21.9 mph N/A   Overcast
9:55 AM 46.4 °F 39.5 °F 42.8 °F 87% 30.14 in 4.0 mi SW 17.3 mph 24.2 mph N/A   Overcast
10:15 AM 44.6 °F 36.9 °F 42.8 °F 93% 30.15 in 2.5 mi SW 18.4 mph 21.9 mph N/A   Drizzle
10:35 AM 44.6 °F 36.6 °F 42.8 °F 93% 30.16 in 1.8 mi SW 19.6 mph 24.2 mph N/A   Drizzle
10:55 AM 44.6 °F 37.4 °F 42.8 °F 93% 30.16 in 2.5 mi SW 16.1 mph 26.5 mph N/A   Light Drizzle
11:15 AM 44.6 °F 39.2 °F 42.8 °F 93% 30.16 in 3.0 mi WNW 10.4 mph - N/A   Overcast
11:35 AM 42.8 °F 35.8 °F 42.8 °F 100% 30.16 in 1.2 mi NW 13.8 mph 20.7 mph 0.01 in Rain Rain
11:55 AM 42.8 °F 35.1 °F 42.8 °F 100% 30.16 in 1.5 mi NW 16.1 mph 20.7 mph 0.01 in   Light Drizzle
12:15 PM 42.8 °F 35.1 °F 41.0 °F 93% 30.16 in 2.5 mi WNW 16.1 mph 25.3 mph N/A   Light Drizzle
12:35 PM 41.0 °F 32.8 °F 41.0 °F 100% 30.17 in 2.5 mi NW 16.1 mph 24.2 mph N/A   Light Drizzle
12:55 PM 41.0 °F 33.5 °F 41.0 °F 100% 30.18 in 1.5 mi WNW 13.8 mph 18.4 mph N/A Rain Light Rain
1:15 PM 41.0 °F 31.9 °F 39.2 °F 93% 30.18 in 1.5 mi NW 19.6 mph 27.6 mph 0.01 in   Drizzle
1:35 PM 41.0 °F 33.9 °F 37.4 °F 87% 30.18 in 4.0 mi West 12.7 mph 20.7 mph 0.01 in   Light Drizzle
1:55 PM 41.0 °F 33.5 °F 35.6 °F 81% 30.18 in 7.0 mi WNW 13.8 mph 31.1 mph 0.01 in   Overcast
2:15 PM 41.0 °F 33.1 °F 35.6 °F 81% 30.18 in 5.0 mi WNW 15.0 mph 24.2 mph N/A   Haze
2:35 PM 42.8 °F 35.1 °F 35.6 °F 76% 30.18 in 7.0 mi WNW 16.1 mph 25.3 mph N/A   Overcast
2:55 PM 41.0 °F 32.2 °F 35.6 °F 81% 30.18 in 5.0 mi NW 18.4 mph 24.2 mph N/A   Light Drizzle
3:15 PM 41.0 °F 33.5 °F 35.6 °F 81% 30.18 in 7.0 mi NW 13.8 mph 18.4 mph N/A   Light Drizzle
3:35 PM 42.8 °F 37.5 °F 35.6 °F 76% 30.18 in 7.0 mi WNW 9.2 mph - N/A   Overcast
3:55 PM 42.8 °F 35.1 °F 33.8 °F 70% 30.18 in 7.0 mi WNW 16.1 mph 23.0 mph N/A   Overcast
4:15 PM 42.8 °F 35.4 °F 32.0 °F 66% 30.18 in 10.0 mi WNW 15.0 mph 20.7 mph N/A   Overcast
4:35 PM 42.8 °F 35.8 °F 32.0 °F 66% 30.18 in 10.0 mi West 13.8 mph 18.4 mph N/A   Overcast
4:55 PM 42.8 °F 35.8 °F 32.0 °F 66% 30.18 in 10.0 mi West 13.8 mph 21.9 mph N/A   Mostly Cloudy
5:15 PM 41.0 °F 33.5 °F 32.0 °F 70% 30.17 in 10.0 mi WNW 13.8 mph 20.7 mph N/A   Scattered Clouds
5:35 PM 41.0 °F 34.3 °F 30.2 °F 65% 30.18 in 10.0 mi West 11.5 mph 18.4 mph N/A   Clear
5:55 PM 41.0 °F 34.3 °F 30.2 °F 65% 30.17 in 10.0 mi West 11.5 mph 17.3 mph N/A   Scattered Clouds
6:15 PM 42.8 °F 35.8 °F 32.0 °F 66% 30.17 in 10.0 mi WNW 13.8 mph 18.4 mph N/A   Mostly Cloudy
6:55 PM 41.0 °F 36.4 °F 32.0 °F 70% 30.17 in 10.0 mi West 6.9 mph 16.1 mph N/A   Overcast
7:15 PM 41.0 °F 34.7 °F 32.0 °F 70% 30.17 in 10.0 mi West 10.4 mph - N/A   Overcast
7:35 PM 41.0 °F 33.1 °F 32.0 °F 70% 30.17 in 10.0 mi West 15.0 mph 20.7 mph N/A   Overcast
7:55 PM 41.0 °F 33.9 °F 32.0 °F 70% 30.16 in 10.0 mi SW 12.7 mph - N/A   Overcast
8:15 PM 41.0 °F 35.2 °F 33.8 °F 76% 30.16 in 10.0 mi SW 9.2 mph 16.1 mph N/A   Overcast
8:35 PM 39.2 °F 32.5 °F 33.8 °F 81% 30.16 in 7.0 mi West 10.4 mph 26.5 mph N/A Rain Light Rain
8:55 PM 41.0 °F 34.7 °F 33.8 °F 76% 30.16 in 10.0 mi WSW 10.4 mph 16.1 mph N/A   Overcast
9:35 PM 35.6 °F 28.0 °F 33.8 °F 93% 30.17 in 5.0 mi WNW 10.4 mph - 0.01 in Rain Light Rain
9:55 PM 37.4 °F 31.4 °F 33.8 °F 87% 30.16 in 7.0 mi West 8.1 mph - 0.01 in   Overcast
10:15 PM 37.4 °F 31.4 °F 35.6 °F 93% 30.16 in 10.0 mi WNW 8.1 mph - N/A   Overcast
10:35 PM 35.6 °F 27.1 °F 33.8 °F 93% 30.16 in 5.0 mi West 12.7 mph 24.2 mph 0.02 in Rain Light Rain
10:55 PM 37.4 °F 29.8 °F 33.8 °F 87% 30.16 in 7.0 mi West 11.5 mph 17.3 mph 0.02 in Rain Rain
11:15 PM 37.4 °F 31.4 °F 33.8 °F 87% 30.16 in 10.0 mi WSW 8.1 mph - N/A   Overcast
11:35 PM 37.4 °F 32.8 °F 33.8 °F 87% 30.15 in 10.0 mi WSW 5.8 mph - N/A   Mostly Cloudy
11:55 PM 37.4 °F 29.8 °F 33.8 °F 87% 30.15 in 10.0 mi NW 11.5 mph - N/A   Overcast